This demonstration page uses our WeatherBlox Daily Observations layout. Learn more.

Left ArrowRight Arrow

Hourly Observations for March 28, 2015

Temp ( °F °C ) Dew Point ( °F °C ) Humidity (%) Winds ( mph kmh ) Pressure ( in mb ) Visibility ( mi km ) Precip ( " mm )
12:51 am 00:51 Clear 54 12.2 19 -7.2 25 25 ENE 5 7 30.00 1016 10 16 0.00 0.00
1:51 am 01:51 Clear 50 10 20 -6.7 30 30 ESE 6 9 30.01 1016 10 16 0.00 0.00
2:51 am 02:51 Clear 51 10.6 22 -5.6 32 32 SSE 6 9 30.00 1016 10 16 0.00 0.00
3:51 am 03:51 Clear 46 7.8 21 -6.1 37 37 E 5 7 30.01 1016 10 16 0.00 0.00
4:51 am 04:51 Clear 46 7.8 21 -6.1 37 37 E 6 9 30.03 1017 10 16 0.00 0.00
5:51 am 05:51 Clear 44 6.7 22 -5.6 41 41 SE 3 6 30.05 1018 10 16 0.00 0.00
6:51 am 06:51 Sunny 47 8.3 23 -5 39 39 ESE 5 7 30.08 1019 10 16 0.00 0.00
7:51 am 07:51 Sunny 55 12.8 24 -4.4 30 30 ESE 3 6 30.10 1019 10 16 0.00 0.00
8:51 am 08:51 Sunny 63 17.2 26 -3.3 25 25 Calm 30.09 1019 10 16 0.00 0.00
9:51 am 09:51 Sunny 70 21.1 21 -6.1 16 16 Calm 30.07 1018 10 16 0.00 0.00
10:51 am 10:51 Sunny 75 23.9 20 -6.7 12 12 Calm 30.06 1018 10 16 0.00 0.00
11:51 am 11:51 Sunny 81 27.2 22 -5.6 11 11 VRB 5 7 30.03 1017 10 16 0.00 0.00
12:51 pm 12:51 Sunny 86 30 19 -7.2 8 8 WNW 9 15 29.99 1016 10 16 0.00 0.00
1:51 pm 13:51 Sunny 88 31.1 16 -8.9 7 7 NW 12 19 29.96 1015 10 16 0.00 0.00
2:51 pm 14:51 Sunny 89 31.7 13 -10.6 6 6 NW 14 22 29.92 1013 10 16 0.00 0.00
3:51 pm 15:51 Sunny 90 32.2 12 -11.1 5 5 NW 16 26 29.91 1013 10 16 0.00 0.00
4:51 pm 16:51 Sunny 89 31.7 10 -12.2 5 5 WNW 18 30 29.91 1013 10 16 0.00 0.00
5:51 pm 17:51 Sunny 86 30 7 -13.9 5 5 NW 15 24 29.92 1013 10 16 0.00 0.00
6:51 pm 18:51 Clear 78 25.6 8 -13.3 7 7 NW 9 15 29.94 1014 10 16 0.00 0.00
7:51 pm 19:51 Clear 69 20.6 11 -11.7 10 10 NNW 9 15 29.97 1015 10 16 0.00 0.00
8:51 pm 20:51 Clear 70 21.1 12 -11.1 10 10 NNW 12 19 29.96 1015 10 16 0.00 0.00
9:51 pm 21:51 Clear 68 20 12 -11.1 11 11 NNW 10 17 29.97 1015 10 16 0.00 0.00
10:51 pm 22:51 Clear 63 17.2 14 -10 15 15 NNW 8 13 29.98 1015 10 16 0.00 0.00
11:51 pm 23:51 Clear 63 17.2 13 -10.6 14 14 NNW 7 11 29.97 1015 10 16 0.00 0.00

Powered by AerisWeather